Gainesville, FL

11:14 PM EST on December 06, 2019 (GMT -0500)
Gainesville Regional

Weather History for KGNV - October, 2019

Change the Weather History Date:

Friday, October 4, 2019

  Actual Average Record
Temperature  
Mean Temperature 76 °F 74 °F  
Max Temperature 91 °F 84 °F 95 °F (1911)
Min Temperature 60 °F 65 °F 46 °F (2011)
Degree Days  
Heating Degree Days 0 0  
Month to date heating degree days 0 0  
Since 1 July heating degree days 0 0  
Cooling Degree Days 11 10  
Month to date cooling degree days 56 40  
Year to date cooling degree days 3072 2380  
Growing Degree Days 25 (Base 50)    
Moisture  
Dew Point 66 °F    
Average Humidity 74    
Maximum Humidity 100    
Minimum Humidity 47    
Precipitation  
Precipitation 0.00 in 0.12 in 2.25 in (2007)
Month to date precipitation 0.05 0.52  
Year to date precipitation 38.29 40.51  
Snow  
Snow 0.00 in 0.00 in 0.00 in ()
Month to date snowfall 0.0 0.0  
Since 1 July snowfall 0.0 0.0  
Since 1 September snowfall 0.0 0.0  
Snow Depth 0.00 in    
Sea Level Pressure  
Sea Level Pressure 30.03 in    
Wind  
Wind Speed 3 mph (ESE)    
Max Wind Speed 10 mph    
Max Gust Speed 14 mph    
Visibility 10 miles    
Events      
T = Trace of Precipitation, MM = Missing Value Source: NWS Daily Summary

Daily Weather History Graph

Daily Weather History Graph

Search for Another Location

Airport or City:

Astronomy

Oct. 04, 2019 Rise Set
Actual Time 7:23 AM EDT 7:11 PM EDT
Civil Twilight 7:00 AM EDT 7:35 PM EDT
Nautical Twilight 6:32 AM EDT 8:02 PM EDT
Astronomical Twilight 6:04 AM EDT 8:30 PM EDT
Moon 1:31 PM EDT (10/4) No Moon Set
Length of Visible Light 12h 34m
Length of Day
11h 47m
Waxing Crescent, 39% of the Moon is Illuminated
Oct 4
Waxing Crescent
Oct 5
First Quarter
Oct 13
Full
Oct 21
Last Quarter
Oct 27
New

Hourly Weather History & Observations

Time (EDT) Temp. Heat Index Dew Point Humidity Pressure Visibility Wind Dir Wind Speed Gust Speed Precip Events Conditions
12:53 AM 68.0 °F - 64.9 °F 90% 30.06 in 10.0 mi Calm Calm - N/A   Clear
1:53 AM 66.0 °F - 64.0 °F 93% 30.05 in 10.0 mi Calm Calm - N/A   Clear
2:53 AM 64.9 °F - 63.0 °F 93% 30.04 in 10.0 mi Calm Calm - N/A   Clear
3:53 AM 63.0 °F - 61.0 °F 93% 30.04 in 10.0 mi Calm Calm - N/A   Clear
4:53 AM 62.1 °F - 61.0 °F 96% 30.03 in 10.0 mi Calm Calm - N/A   Clear
5:53 AM 61.0 °F - 60.1 °F 97% 30.04 in 10.0 mi Calm Calm - N/A   Clear
6:40 AM 60.1 °F - 59.0 °F 96% 30.05 in 10.0 mi Calm Calm - N/A   Clear
6:53 AM 61.0 °F - 59.0 °F 93% 30.05 in 10.0 mi Calm Calm - N/A   Clear
7:53 AM 62.1 °F - 60.1 °F 93% 30.06 in 10.0 mi Calm Calm - N/A   Clear
8:53 AM 70.0 °F - 66.9 °F 90% 30.08 in 10.0 mi Calm Calm - N/A   Clear
9:53 AM 78.1 °F - 69.1 °F 74% 30.08 in 10.0 mi Calm Calm - N/A   Clear
10:53 AM 82.0 °F 85.5 °F 69.1 °F 65% 30.08 in 10.0 mi Variable 3.5 mph - N/A   Partly Cloudy
11:53 AM 84.0 °F 87.0 °F 68.0 °F 58% 30.06 in 10.0 mi East 5.8 mph - N/A   Clear
12:53 PM 84.9 °F 86.1 °F 64.0 °F 49% 30.05 in 10.0 mi SSW 6.9 mph - N/A   Clear
1:53 PM 87.1 °F 90.6 °F 68.0 °F 53% 30.02 in 10.0 mi South 8.1 mph - N/A   Scattered Clouds
2:53 PM 89.1 °F 92.9 °F 68.0 °F 50% 29.99 in 10.0 mi SSE 8.1 mph - N/A   Scattered Clouds
3:53 PM 89.1 °F 92.1 °F 66.9 °F 48% 29.97 in 10.0 mi SE 4.6 mph - N/A   Scattered Clouds
4:53 PM 89.1 °F 91.3 °F 66.0 °F 46% 29.96 in 10.0 mi Variable 3.5 mph - N/A   Clear
5:53 PM 90.0 °F 92.4 °F 66.0 °F 45% 29.96 in 10.0 mi ENE 5.8 mph - N/A   Partly Cloudy
6:53 PM 84.9 °F 88.8 °F 69.1 °F 59% 29.97 in 10.0 mi ENE 4.6 mph - N/A   Clear
7:53 PM 80.1 °F 82.9 °F 69.1 °F 69% 29.99 in 10.0 mi East 5.8 mph - N/A   Clear
8:53 PM 77.0 °F - 70.0 °F 79% 30.00 in 10.0 mi East 5.8 mph - N/A   Clear
9:53 PM 75.0 °F - 71.1 °F 87% 30.02 in 10.0 mi ESE 3.5 mph - N/A   Clear
10:53 PM 73.9 °F - 71.1 °F 91% 30.03 in 10.0 mi Calm Calm - N/A   Clear
11:53 PM 73.0 °F - 71.1 °F 93% 30.03 in 10.0 mi Calm Calm - N/A   Clear